ISOUTHCR7 Weather Reports


Display with metric or nautical units.
time (UTC)temp
F
wind
direction
speed
MPH
gust
MPH
rain 1hr
in
rain 24hr
in
rain mn
in
humidity
%
barometer
mb
20260508020214 40 180 0.0 0.0 0.00 0.00 0.00 86 1016.3
20260508015139 40 180 0.0 0.0 0.00 0.00 0.00 86 1016.2
20260508014119 40 180 0.0 0.0 0.00 0.00 0.00 86 1016.0
20260508013136 41 180 0.0 0.0 0.00 0.00 0.00 86 1016.1
20260508012132 41 180 0.0 0.0 0.00 0.00 0.00 86 1016.1
20260508011132 41 180 0.0 0.0 0.00 0.00 0.00 85 1016.2
20260508004957 42 180 0.0 0.0 0.00 0.00 0.00 85 1016.2
20260508002915 43 180 0.0 0.0 0.00 0.00 0.00 85 1016.3
20260508001843 44 180 0.0 0.0 0.00 0.00 0.00 85 1016.4
20260508000838 44 180 0.0 0.0 0.00 0.00 0.00 85 1016.4
20260507235821 45 180 0.0 0.0 0.00 0.00 0.00 85 1016.5
20260507234806 46 180 0.0 0.0 0.00 0.00 0.00 85 1016.6
20260507233823 46 180 0.0 0.0 0.00 0.00 0.00 85 1016.6
20260507230609 48 182 0.0 2.0 0.00 0.00 0.00 85 1016.7
20260507225543 48 183 1.0 4.0 0.00 0.00 0.00 84 1016.7
20260507224537 48 187 1.0 4.0 0.00 0.00 0.00 84 1016.7
20260507223507 49 196 0.0 3.0 0.00 0.00 0.00 84 1016.7
20260507222500 49 150 1.0 4.0 0.00 0.00 0.00 84 1016.7
20260507220349 50 153 2.0 5.0 0.00 0.00 0.00 82 1016.6
20260507215347 50 167 2.0 6.0 0.00 0.00 0.00 82 1016.6
20260507212042 51 147 6.0 11.0 0.00 0.00 0.00 80 1016.4
20260507211045 51 134 5.0 10.0 0.00 0.00 0.00 80 1016.4
20260507204930 51 143 3.0 8.0 0.00 0.00 0.00 79 1016.4
20260507203935 51 156 2.0 8.0 0.00 0.00 0.00 79 1016.4
20260507202952 51 148 2.0 7.0 0.00 0.00 0.00 79 1016.2
20260507202006 51 142 2.0 7.0 0.00 0.00 0.00 78 1016.0
20260507194742 52 140 4.0 7.0 0.00 0.00 0.00 77 1015.9
20260507193714 52 147 4.0 11.0 0.00 0.00 0.00 76 1015.8
20260507192717 52 138 4.0 11.0 0.00 0.00 0.00 76 1015.8
20260507191654 52 136 4.0 11.0 0.00 0.00 0.00 76 1015.7
20260507190630 53 150 4.0 9.0 0.00 0.00 0.00 76 1015.7
20260507185600 53 153 4.0 9.0 0.00 0.00 0.00 75 1015.8
20260507184622 53 144 5.0 14.0 0.00 0.00 0.00 74 1015.7
20260507183622 53 148 5.0 14.0 0.00 0.00 0.00 74 1015.7
20260507182607 53 133 7.0 12.0 0.00 0.00 0.00 73 1015.6
20260507175307 54 144 6.0 13.0 0.00 0.00 0.00 71 1015.4
20260507174319 55 143 5.0 11.0 0.00 0.00 0.00 69 1015.4
20260507173336 55 191 5.0 11.0 0.00 0.00 0.00 69 1015.3
20260507172318 55 165 6.0 14.0 0.00 0.00 0.00 69 1015.4
20260507170151 56 157 4.0 9.0 0.00 0.00 0.00 66 1015.3
20260507165126 57 165 5.0 10.0 0.00 0.00 0.00 66 1015.3
20260507164102 57 136 4.0 9.0 0.00 0.00 0.00 64 1015.3
20260507163113 57 168 4.0 9.0 0.00 0.00 0.00 65 1015.3
20260507162055 57 161 4.0 9.0 0.00 0.00 0.00 64 1015.3
20260507161117 57 135 4.0 9.0 0.00 0.00 0.00 65 1015.3
20260507160115 56 173 4.0 10.0 0.00 0.00 0.00 65 1015.3
20260507155119 56 134 4.0 12.0 0.00 0.00 0.00 66 1015.4
20260507154101 57 147 6.0 12.0 0.00 0.00 0.00 65 1015.4
20260507151845 58 178 0.0 2.0 0.00 0.00 0.00 58 1015.4
20260507150820 58 178 0.0 1.0 0.00 0.00 0.00 59 1015.4
20260507145838 58 194 0.0 3.0 0.00 0.00 0.00 59 1015.4
20260507144853 59 180 0.0 3.0 0.00 0.00 0.00 58 1015.5
20260507143856 59 231 0.0 3.0 0.00 0.00 0.00 59 1015.5
20260507142841 59 254 0.0 3.0 0.00 0.00 0.00 58 1015.5
20260507141849 59 180 1.0 3.0 0.00 0.00 0.00 56 1015.5
20260507140910 59 251 1.0 3.0 0.00 0.00 0.00 59 1015.6
20260507135917 58 177 0.0 0.0 0.00 0.00 0.00 60 1015.7
20260507134933 58 176 0.0 0.0 0.00 0.00 0.00 59 1015.7
20260507133936 58 173 1.0 5.0 0.00 0.00 0.00 58 1015.7
20260507131819 60 266 1.0 6.0 0.00 0.00 0.00 56 1015.7
20260507130806 59 253 2.0 6.0 0.00 0.00 0.00 57 1015.8
20260507125819 60 142 2.0 7.0 0.00 0.00 0.00 56 1015.8
20260507123702 56 134 1.0 10.0 0.00 0.00 0.00 61 1015.8
20260507122652 56 188 2.0 10.0 0.00 0.00 0.00 63 1015.9
20260507121643 57 239 0.0 7.0 0.00 0.00 0.00 62 1015.9
20260507120611 56 244 2.0 7.0 0.00 0.00 0.00 63 1016.0
20260507115605 56 145 2.0 5.0 0.00 0.00 0.00 62 1016.1
20260507113525 58 111 4.0 10.0 0.00 0.00 0.00 59 1016.1
20260507112529 60 140 3.0 10.0 0.00 0.00 0.00 57 1016.1
20260507111512 59 215 4.0 10.0 0.00 0.00 0.00 61 1016.1
20260507110505 58 136 3.0 10.0 0.00 0.00 0.00 61 1016.2
20260507105442 58 144 4.0 9.0 0.00 0.00 0.00 61 1016.3
20260507104452 58 188 3.0 8.0 0.00 0.00 0.00 62 1016.3
20260507103510 58 155 3.0 8.0 0.00 0.00 0.00 61 1016.4
20260507102442 56 155 3.0 8.0 0.00 0.00 0.00 65 1016.4
20260507101452 55 136 2.0 8.0 0.00 0.00 0.00 65 1016.4
20260507100422 54 222 2.0 6.0 0.00 0.00 0.00 67 1016.4
20260507095425 54 191 3.0 8.0 0.00 0.00 0.00 69 1016.4
20260507094351 54 143 4.0 8.0 0.00 0.00 0.00 68 1016.5
20260507093321 54 127 4.0 8.0 0.00 0.00 0.00 68 1016.3
20260507092334 54 135 3.0 7.0 0.00 0.00 0.00 70 1016.3
20260507090134 53 147 4.0 7.0 0.00 0.00 0.00 70 1016.4
20260507085124 53 184 2.0 7.0 0.00 0.00 0.00 74 1016.4
20260507084120 52 184 1.0 5.0 0.00 0.00 0.00 73 1016.4
20260507083126 52 134 2.0 6.0 0.00 0.00 0.00 73 1016.4
20260507082059 52 169 3.0 8.0 0.00 0.00 0.00 72 1016.4
20260507081100 52 143 2.0 8.0 0.00 0.00 0.00 73 1016.4
20260507080122 52 159 3.0 8.0 0.00 0.00 0.00 75 1016.3
20260507075110 51 125 3.0 8.0 0.00 0.00 0.00 77 1016.3
20260507074103 50 169 2.0 7.0 0.00 0.00 0.00 80 1016.2
20260507073053 50 146 2.0 7.0 0.00 0.00 0.00 81 1016.1
20260507072115 49 150 2.0 7.0 0.00 0.00 0.00 80 1016.1
20260507071047 49 145 3.0 6.0 0.00 0.00 0.00 81 1016.0
20260507070048 48 136 3.0 6.0 0.00 0.00 0.00 83 1016.0
20260507065109 48 133 2.0 4.0 0.00 0.00 0.00 84 1016.0
20260507064127 48 147 2.0 4.0 0.00 0.00 0.00 86 1016.0
20260507061933 47 94 0.0 2.0 0.00 0.00 0.00 87 1016.0
20260507060925 47 62 0.0 0.0 0.00 0.01 0.00 87 1016.0
20260507055913 47 62 0.0 0.0 0.00 0.03 0.00 87 1015.9
20260507054925 47 61 0.0 0.0 0.00 0.03 0.00 87 1015.7
20260507053909 47 61 0.0 0.0 0.00 0.03 0.00 87 1015.7
20260507052853 46 61 0.0 0.0 0.00 0.03 0.00 87 1015.6
20260507051911 46 61 0.0 0.0 0.00 0.03 0.00 87 1015.5
20260507050902 46 61 0.0 0.0 0.00 0.03 0.00 87 1015.4
20260507044757 46 61 0.0 0.0 0.00 0.03 0.00 87 1015.4
20260507043754 46 61 0.0 0.0 0.00 0.03 0.00 87 1015.4
20260507042811 46 61 0.0 0.0 0.00 0.03 0.00 87 1015.3
20260507041816 46 61 0.0 0.0 0.00 0.03 0.00 87 1015.2
20260507040815 46 61 0.0 0.0 0.00 0.03 0.00 87 1015.2
20260507035828 46 61 0.0 0.0 0.00 0.03 0.00 87 1015.1
20260507034831 46 65 0.0 0.0 0.00 0.03 0.00 87 1015.2
20260507033839 46 65 0.0 0.0 0.00 0.03 0.00 87 1015.1
20260507032826 46 65 0.0 0.0 0.00 0.03 0.00 87 1015.1
20260507025422 46 65 0.0 0.0 0.00 0.03 0.00 86 1015.0
20260507024358 47 65 0.0 0.0 0.00 0.03 0.00 86 1014.9
20260507023340 47 65 0.0 0.0 0.00 0.03 0.00 86 1014.9
20260507022344 47 65 0.0 0.0 0.00 0.03 0.00 86 1014.9